Location: Argentières
(48.6534°N, 2.8676°E)
Time: 08:26:31
(UTC+00:00)

Daily predictions for brighter satellites

Satellite Brightness Start Highest point End
(mag) Time Altitude Azimuth Time Altitude Azimuth Time Altitude Azimuth
CENTAUR R/B 2.6 20:22:23 10° SW 20:27:56 86° NW 20:35:04 10° NE
Cosmos 44 Rocket 3.6 20:23:08 10° NW 20:28:19 76° SW 20:33:21 10° SSE
Cosmos 1758 4.3 20:27:54 10° NNE 20:31:09 28° ENE 20:34:21 10° SE
Meteor 1-27 Rocket 3.8 20:27:57 10° SSW 20:33:33 83° WNW 20:39:07 10° N
Cosmos 2208 Rocket 4.1 20:30:06 10° S 20:35:09 54° ESE 20:40:10 10° NNE
BREEZE-M DEB (TANK) 1.9 20:33:48 10° W 20:36:42 72° N 20:38:41 10° E
SPOT 3 Rocket 3.9 20:34:37 10° SE 20:39:35 53° ENE 20:44:36 10° N
SL-12 R/B (Aux Motor) 4.1 20:38:15 10° WSW 20:40:27 51° SSE 20:44:18 10° E
Aureole 2 4.3 20:37:54 10° SSW 20:40:48 66° WNW 20:43:35 10° NNE
NOSS 2-2 (D) 4.2 20:39:16 10° WSW 20:42:26 41° NW 20:45:19 10° NNE
YAOGAN 11 4.2 20:38:40 10° NNE 20:43:06 61° ESE 20:47:27 10° S
Cosmos 2082 4.1 20:38:19 10° SW 20:43:54 68° WNW 20:49:31 10° NNE
Cosmos 2227 4.3 20:39:22 10° SSW 20:45:01 62° ESE 20:50:43 10° NNE
Okean 3 Rocket 4.0 20:42:29 10° N 20:46:49 47° ENE 20:51:04 10° SSE
Meteor 2-20 Rocket 4.4 20:41:47 10° S 20:47:34 80° E 20:53:35 10° NNE
CZ-4 R/B 3.8 20:45:11 10° SW 20:47:47 18° W 20:50:26 10° NW
Cosmos 2263 Rocket 4.2 20:43:09 10° WSW 20:48:11 34° NW 20:53:14 10° NNE
Helios 1A Rocket 3.3 20:46:08 10° N 20:49:09 47° WNW 20:52:10 10° SW
Ariane Rocket 3.4 20:44:21 10° SE 20:49:14 50° ENE 20:54:08 10° N
Okean-O 2.9 20:45:57 10° S 20:50:18 69° WSW 20:54:41 10° NNW
Spot 2 Rocket 3.9 20:47:10 10° S 20:52:10 62° WSW 20:57:14 10° NNW
Cosmos 1805 Rocket 4.4 20:49:04 10° N 20:53:03 35° ENE 20:56:46 11° SE
CZ-4B R/B 4.4 20:50:24 10° SSW 20:55:30 40° W 21:00:33 10° NNW
NOSS 3-2 (A) 3.1 20:50:50 10° SSW 20:55:41 58° ESE 21:01:30 10° NE
Cosmos 1340 Rocket 3.0 20:52:47 10° N 20:56:29 51° ENE 20:59:47 12° SSE
Cosmos 1408 Rocket 4.3 20:53:06 10° N 20:57:15 39° ENE 21:01:00 12° SE
Cosmos 1842 Rocket 3.6 20:53:19 10° S 20:57:45 83° E 21:02:13 10° N
Cosmos 1603 3.8 20:52:31 10° NNW 20:58:18 83° ENE 21:03:42 12° SSE
USA 215 3.7 20:51:58 10° ESE 20:58:24 63° NNE 21:04:51 10° NW
Cosmos 773 Rocket 4.1 20:55:01 10° SSW 21:00:09 79° WNW 21:05:22 10° NNE
BREEZE-M DEB (TANK) 2.8 20:59:11 10° W 21:00:50 19° SSW 21:01:54 13° S
EXPRESS MD2 4.4 21:02:28 10° W 21:06:09 27° SW 21:08:14 13° SSE
USA 245 2.9 21:03:10 11° SSE 21:06:50 87° ENE 21:09:58 10° NNW
Cosmos 1844 Rocket 2.7 21:01:51 10° SSW 21:07:25 89° SE 21:13:02 10° NNE
Meteor 2-10 Rocket 4.1 21:02:36 10° NNW 21:08:22 66° W 21:14:02 10° S
SL-14 R/B 3.1 21:06:53 10° S 21:10:36 82° E 21:14:20 10° NNE
Cosmos 1238 Rocket 4.4 21:07:28 10° SSW 21:12:08 45° WNW 21:16:42 10° N
Cosmos 1553 Rocket 4.3 21:07:27 10° SSE 21:13:35 52° E 21:19:41 10° NNE
CZ-4C R/B 3.6 21:07:47 10° NW 21:14:36 50° WSW 21:22:43 11° SSE
Cosmos 1833 Rocket 3.8 21:12:40 10° NNW 21:17:53 36° NE 21:22:56 11° ESE
Cosmos 1151 Rocket 3.2 21:14:26 12° S 21:18:20 53° E 21:22:34 10° NNE
CZ-2C R/B 2.4 21:23:48 21° SE 21:25:19 44° ENE 21:27:58 10° N
Cosmos 1953 3.5 21:24:32 10° NNE 21:27:34 25° ENE 21:29:35 16° ESE
SL-24 R/B - RUBIN 2 3.9 21:23:32 10° SW 21:28:03 71° NW 21:32:25 10° NE
Cosmos 1844 4.0 21:22:49 10° SW 21:28:36 73° WNW 21:34:26 10° NNE
CZ-4B R/B 3.6 21:24:45 14° SSE 21:29:12 82° WSW 21:34:25 10° NNW
Okean O Rocket 3.3 21:26:06 10° SSW 21:29:51 28° W 21:33:39 10° NW
In-Cosmos 22 4.4 21:29:37 10° SSW 21:35:23 77° WNW 21:41:10 10° N
NOSS 3-2 (C) 3.4 21:32:24 10° SSW 21:37:08 45° ESE 21:42:42 10° NE
NOSS 2-3 (C) 4.1 21:42:38 22° SE 21:43:09 23° ESE 21:45:59 10° ENE
Cosmos 1461 3.2 21:39:54 10° NW 21:43:13 40° WSW 21:45:06 21° S
USA 186 4.1 21:42:55 10° WSW 21:43:18 10° W 21:43:41 10° W
CZ-4B R/B 3.8 21:42:34 13° SSW 21:45:45 40° W 21:49:30 10° NNW
Cosmos 1745 Rocket 4.3 21:40:20 10° N 21:46:30 58° ENE 21:51:04 19° SSE
Sich 1 4.5 21:49:48 10° NNW 21:53:36 32° W 21:57:23 10° SSW
Cosmos 1500 Rocket 3.8 21:49:25 10° NNW 21:53:42 62° W 21:56:48 18° S
Cosmos 2344 4.0 21:48:48 12° S 21:55:31 38° ESE 22:02:01 10° NE
Helios 1A 3.7 21:52:18 10° NNE 21:55:53 33° E 21:57:27 24° SE
GP-B 3.1 21:53:49 10° N 21:58:12 79° W 22:01:22 18° S
Iridium 4 Rocket 3.5 21:55:05 18° S 21:59:16 82° E 22:04:21 10° N
Helios 1B rocket 3.6 21:57:42 16° ESE 21:59:25 24° ENE 22:02:14 10° NNE
Cosmos 1607 4.2 21:54:47 10° NW 22:01:07 65° WSW 22:05:32 21° SSE
ARIANE 5 R/B 4.3 21:59:12 14° ESE 22:02:03 24° ENE 22:05:38 10° N
SWARM C 4.4 22:01:03 10° N 22:04:18 80° E 22:05:40 32° S
SWARM A 4.2 22:01:14 10° N 22:04:28 67° E 22:05:43 33° SSE
Cosmos 2285 Rocket 4.4 22:02:14 10° NNW 22:08:26 57° WSW 22:13:01 19° S
Cosmos 1420 Rocket 4.5 22:04:43 10° NNW 22:09:50 53° ENE 22:13:10 21° SE
NOSS 2-3 (D) 3.0 22:07:03 13° SSW 22:10:16 69° SE 22:14:05 10° NE
ALOS 2 4.1 22:11:55 15° ESE 22:14:32 27° ENE 22:18:12 10° N
Cosmos 1538 Rocket 3.9 22:11:36 17° SSW 22:15:34 75° ESE 22:20:48 10° NNE
Cosmos 2315 Rocket 4.2 22:13:38 22° SSE 22:17:38 58° E 22:23:43 10° NNE
Cosmos 1943 Rocket 3.2 22:16:33 22° SE 22:18:44 29° ESE 22:23:29 10° NE
Iridium 45 4.2 22:18:34 33° SSW 22:19:46 70° W 22:22:50 10° N
Cosmos 1328 Rocket 3.5 22:24:39 28° S 22:26:54 74° E 22:31:15 10° NNE
CZ-2C R/B 4.4 22:23:27 10° NNE 22:27:51 39° E 22:29:46 27° SE
Lacrosse 5 rocket 1.5 22:30:44 36° SE 22:30:44 36° SE 22:34:00 10° ENE
Cosmos 1666 Rocket 3.6 22:31:05 10° NNW 22:35:27 74° W 22:37:29 30° S
CZ-2C R/B 4.4 22:31:43 10° ESE 22:35:39 22° ENE 22:39:37 10° N
NOSS 2-3 (E) 3.5 22:34:15 10° SW 22:37:53 65° NW 22:41:44 10° NE
USA 215 3.4 22:37:29 24° SSE 22:41:30 57° SW 22:47:56 10° WNW
GEOS 3 Rocket 3.7 22:45:16 24° SE 22:48:36 89° SW 22:54:01 10° NW
Timation 1 Rocket 4.3 22:45:28 10° NNW 22:51:28 79° WSW 22:54:45 28° SSE
S3M 4.2 22:48:41 19° SSW 22:53:09 66° WNW 22:59:18 10° N
Cosmos 1515 Rocket 3.6 22:55:38 35° SSE 22:57:15 62° E 23:01:34 10° NNE
CSL-04 DEB 4.1 22:57:32 43° SSE 22:58:40 84° ENE 23:02:22 10° NNW
ARGOS Delta rocket 4.0 22:54:00 10° NNE 22:59:25 90° ENE 23:02:18 28° SSW
USA 59 Rocket 0.5 23:01:29 28° ESE 23:01:29 28° ESE 23:03:44 10° ENE
Spot 4 3.8 22:59:30 32° SSE 23:01:45 86° ENE 23:06:37 10° NNW
Cosmos 1833 Rocket 3.3 22:56:33 10° NW 23:01:55 45° WSW 23:04:36 27° SSW
Cosmos 1953 3.8 22:59:28 10° NW 23:02:23 24° W 23:03:46 19° WSW
Meteor 1-16 Rocket 4.3 23:00:17 10° NNW 23:05:45 67° W 23:08:42 29° S
SAR-Lupe-2 4.4 23:05:52 30° ESE 23:06:42 35° ENE 23:09:42 10° N
Cosmos 2082 Rocket 2.9 23:02:21 10° NNW 23:07:51 49° NE 23:11:52 18° SE
Okean 3 3.6 23:09:18 39° SE 23:10:25 53° E 23:14:18 10° NNE
Meteor 1-23 Rocket 4.4 23:07:55 23° SSW 23:11:26 67° WNW 23:17:00 10° N
Cosmos 2278 Rocket 2.4 23:09:54 30° S 23:12:29 56° ESE 23:18:01 10° NE
Cosmos 1633 Rocket 4.1 23:09:07 10° NNW 23:13:08 37° W 23:15:02 25° SW
Cosmos 1400 Rocket 2.5 23:20:55 10° NNW 23:24:38 84° W 23:25:30 51° S
Cosmos 1624 Rocket 4.0 23:19:32 10° NNW 23:24:50 75° WSW 23:27:14 33° S
Cosmos 1680 Rocket 3.4 23:22:43 28° SSW 23:25:28 86° WNW 23:30:43 10° NNE
Cosmos 494 Rocket 3.9 23:24:38 31° SSW 23:27:13 83° ESE 23:32:29 10° NNE
CZ-2C R/B 3.4 23:21:47 10° NNE 23:27:17 57° E 23:29:38 32° SSE
NOSS 3-2 (C) 4.5 23:22:59 10° WSW 23:27:59 42° NNW 23:34:00 10° NE
Meteor 1-12 Rocket 4.5 23:25:20 10° NNW 23:30:54 60° W 23:33:43 29° SSW
Cosmos 2056 Rocket 3.5 23:26:31 10° NNW 23:31:35 63° WSW 23:33:39 34° S
Helios 1B rocket 3.4 23:31:35 24° WSW 23:32:14 26° W 23:35:13 10° NW
Cosmos 1048 Rocket 4.4 23:31:20 32° SSE 23:33:15 47° ESE 23:38:17 10° NNE
Cosmos 1328 4.4 23:35:16 33° ESE 23:35:53 36° E 23:39:10 10° NNE
Cosmos 1812 4.2 23:35:05 10° N 23:35:32 15° N 23:35:32 15° N
ARIANE 5 R/B 3.3 23:36:34 31° SW 23:38:07 43° W 23:42:23 10° NNW
ACS3 Solar Sail 2.5 23:35:06 10° NNE 23:40:24 37° E 23:43:11 24° SE
USA 238 DEB 3.4 23:36:16 22° SW 23:40:27 84° SE 23:47:15 10° NE
USA 238 3.4 23:36:31 22° SW 23:40:40 83° SE 23:47:28 10° NE
Cosmos 546 4.4 23:46:12 19° WSW 23:48:51 87° SSE 23:52:40 10° ENE
BREEZE-M DEB (TANK) 3.5 23:35:54 10° W 23:49:24 84° N 23:53:27 10° E
ALOS 2 3.5 23:49:18 29° SW 23:50:43 37° W 23:54:49 10° NNW
Cosmos 1933 Rocket 4.0 23:48:21 10° NNW 23:52:30 48° W 23:53:53 34° SW
Cosmos 1441 Rocket 3.0 23:54:18 51° WSW 23:54:48 60° WNW 23:58:01 10° N
